Salamanca, Spain

5:13 AM CET on November 22, 2017 (GMT +0100)
Matacan

Weather History for LESA - September, 2013

Change the Weather History Date:

Monday, September 9, 2013

  Actual Average Record
Temperature  
Mean Temperature 62 °F -  
Max Temperature 81 °F - - ()
Min Temperature 42 °F - - ()
Degree Days  
Heating Degree Days 4    
Growing Degree Days 12 (Base 50)    
Moisture  
Dew Point 46 °F    
Average Humidity 65    
Maximum Humidity 100    
Minimum Humidity 20    
Precipitation  
Precipitation 0.00 in 0.04 in - ()
Sea Level Pressure  
Sea Level Pressure 30.27 in    
Wind  
Wind Speed 1 mph ()    
Max Wind Speed 5 mph    
Max Gust Speed -    
Visibility 10.3 miles    
Events      
T = Trace of Precipitation, MM = Missing Value Source: Averaged Metar Reports

Daily Weather History Graph

Daily Weather History Graph

Search for Another Location

Airport or City:

Trip Planner

Search our weather history database for the weather conditions in past years. The results will help you decide how hot, cold, wet, or windy it might be!

Date:

Astronomy

Sep. 09, 2013 Rise Set
Actual Time 7:56 AM CEST 8:41 PM CEST
Civil Twilight 7:28 AM CEST 9:08 PM CEST
Nautical Twilight 6:55 AM CEST 9:41 PM CEST
Astronomical Twilight 6:21 AM CEST 10:15 PM CEST
Moon 12:05 PM CEST (9/9) 10:45 PM CEST (9/9)
Length of Visible Light 13h 40m
Length of Day
12h 44m
Waxing Crescent, 16% of the Moon is Illuminated
Sep 9
Waxing Crescent
Sep 12
First Quarter
Sep 19
Full
Sep 27
Last Quarter
Oct 5
New

Hourly Weather History & Observations

Time (CEST) Temp. Dew Point Humidity Pressure Visibility Wind Dir Wind Speed Gust Speed Precip Events Conditions
12:00 AM 55.4 °F 48.2 °F 77% 30.30 in - Variable 1.2 mph - N/A   Clear
12:30 AM 51.8 °F 48.2 °F 88% 30.30 in - Calm Calm - N/A   Clear
1:00 AM 51.8 °F 48.2 °F 88% 30.30 in - Calm Calm - N/A   Clear
1:30 AM 50.0 °F 46.4 °F 87% 30.30 in - Calm Calm - N/A   Clear
2:00 AM 49 °F 47 °F 92%  in 11 mi East 1.2 mph - -   Clear
2:00 AM 50.0 °F 46.4 °F 87% 30.30 in - Variable 1.2 mph - N/A   Clear
2:30 AM 48.2 °F 46.4 °F 93% 30.30 in - Calm Calm - N/A   Clear
3:00 AM 48.2 °F 46.4 °F 93% 30.30 in - Variable 2.3 mph - N/A   Clear
3:30 AM 48.2 °F 46.4 °F 93% 30.30 in - Calm Calm - N/A   Clear
4:00 AM 48.2 °F 46.4 °F 93% 30.30 in - Variable 2.3 mph - N/A   Clear
4:30 AM 48.2 °F 46.4 °F 93% 30.30 in - Variable 1.2 mph - N/A   Clear
5:00 AM 46.4 °F 44.6 °F 93% 30.27 in - Variable 1.2 mph - N/A   Clear
5:30 AM 46.4 °F 44.6 °F 93% 30.27 in - Calm Calm - N/A   Clear
6:00 AM 46.4 °F 44.6 °F 93% 30.27 in - Calm Calm - N/A   Clear
6:30 AM 44.6 °F 44.6 °F 100% 30.27 in - Calm Calm - N/A   Clear
7:00 AM 44.6 °F 44.6 °F 100% 30.27 in - Variable 1.2 mph - N/A   Clear
7:30 AM 44.6 °F 42.8 °F 93% 30.30 in - Variable 2.3 mph - N/A   Clear
8:00 AM 43 °F 43 °F 100%  in 6 mi Calm Calm - -   Clear
8:00 AM 42.8 °F 42.8 °F 100% 30.30 in - Calm Calm - N/A   Clear
8:30 AM 44.6 °F 44.6 °F 100% 30.30 in - Calm Calm - N/A   Clear
9:00 AM 50.0 °F 48.2 °F 94% 30.30 in - Calm Calm - N/A   Clear
9:30 AM 50.0 °F 48.2 °F 94% 30.30 in - Calm Calm - N/A   Clear
10:00 AM 53.6 °F 50.0 °F 88% 30.33 in - Calm Calm - N/A   Clear
10:30 AM 55.4 °F 51.8 °F 88% 30.33 in - Calm Calm - N/A   Clear
11:00 AM 60.8 °F 50.0 °F 68% 30.33 in - Calm Calm - N/A   Clear
11:30 AM 64.4 °F 51.8 °F 64% 30.33 in - Calm Calm - N/A   Clear
12:00 PM 64.4 °F 53.6 °F 68% 30.33 in - Calm Calm - N/A   Clear
12:30 PM 68.0 °F 53.6 °F 60% 30.30 in - Variable 2.3 mph - N/A   Clear
1:00 PM 71.6 °F 50.0 °F 46% 30.30 in - East 3.5 mph - N/A   Clear
1:30 PM 73.4 °F 46.4 °F 38% 30.30 in - Variable 2.3 mph - N/A   Clear
2:00 PM 76 °F 43 °F 20%  in 12 mi East 4.6 mph - -   Clear
2:00 PM 75.2 °F 41.0 °F 29% 30.30 in - East 4.6 mph - N/A   Clear
2:30 PM 75.2 °F 42.8 °F 31% 30.27 in - ENE 3.5 mph - N/A   Clear
3:00 PM 77.0 °F 39.2 °F 26% 30.27 in - Variable 2.3 mph - N/A   Clear
3:30 PM 77.0 °F 39.2 °F 26% 30.27 in - Variable 2.3 mph - N/A   Clear
4:00 PM 77.0 °F 41.0 °F 28% 30.24 in - Variable 4.6 mph - N/A   Clear
4:30 PM 78.8 °F 39.2 °F 24% 30.24 in - Variable 2.3 mph - N/A   Clear
5:00 PM 78.8 °F 35.6 °F 21% 30.24 in - Calm Calm - N/A   Clear
5:30 PM 78.8 °F 37.4 °F 23% 30.24 in - Variable 1.2 mph - N/A   Clear
6:00 PM 78.8 °F 37.4 °F 23% 30.24 in - Variable 2.3 mph - N/A   Clear
6:30 PM 78.8 °F 39.2 °F 24% 30.21 in - Variable 2.3 mph - N/A   Clear
7:00 PM 78.8 °F 41.0 °F 26% 30.21 in - Variable 2.3 mph - N/A   Clear
7:30 PM 77.0 °F 42.8 °F 29% 30.21 in - NE 3.5 mph - N/A   Clear
8:00 PM 76 °F 45 °F 22%  in 12 mi NE 3.5 mph - -   Clear
8:00 PM 75.2 °F 44.6 °F 34% 30.21 in - NE 3.5 mph - N/A   Clear
8:30 PM 71.6 °F 44.6 °F 38% 30.21 in - Variable 2.3 mph - N/A   Clear
9:00 PM 66.2 °F 50.0 °F 56% 30.21 in - ENE 3.5 mph - N/A   Clear
9:30 PM 66.2 °F 48.2 °F 52% 30.21 in - Calm Calm - N/A   Clear
10:00 PM 62.6 °F 51.8 °F 68% 30.24 in - Calm Calm - N/A   Clear
10:30 PM 62.6 °F 51.8 °F 68% 30.24 in - Calm Calm - N/A   Clear
11:00 PM 57.2 °F 51.8 °F 82% 30.24 in - Calm Calm - N/A   Clear
11:30 PM 57.2 °F 51.8 °F 82% 30.24 in - Calm Calm - N/A   Clear